MDL73 WIII-WIBB

Flight info

Callsign MDL73
Flight time 1h 20m
Altitude 38000
Route GOMEL1B GOMEL T10 OVSET OVSET1H
Aircraft A20N/M-SDE2E3FGHIRWXY/LB1

Departure

Time 2026-05-01 08:46
Airport Soekarno-Hatta International Airport (WIII)

Arrival

Time 2026-05-01 10:07
Airport Sultan Syarif Kasim II International Airport / Roesmin Nurjadin AFB (WIBB)
Time Latitude Longitude Altitude Speed Heading
2026-05-01 08:18 -6.13090 106.65144 38 ft 0 kts 101°
2026-05-01 08:35 -6.13089 106.65138 38 ft 2 kts 101°
2026-05-01 08:35 -6.13086 106.65121 38 ft 2 kts 102°
2026-05-01 08:36 -6.13082 106.65105 36 ft 2 kts 105°
2026-05-01 08:36 -6.13076 106.65089 36 ft 2 kts 153°
2026-05-01 08:36 -6.13060 106.65088 37 ft 2 kts 188°
2026-05-01 08:36 -6.13044 106.65090 36 ft 2 kts 188°
2026-05-01 08:37 -6.13041 106.65091 35 ft 0 kts 189°
2026-05-01 08:39 -6.13060 106.65085 38 ft 6 kts 208°
2026-05-01 08:39 -6.13084 106.65025 37 ft 13 kts 254°
2026-05-01 08:40 -6.13167 106.64839 38 ft 13 kts 198°
2026-05-01 08:40 -6.13260 106.64866 38 ft 16 kts 158°
2026-05-01 08:40 -6.13372 106.64912 36 ft 19 kts 159°
2026-05-01 08:41 -6.13499 106.64962 38 ft 20 kts 158°
2026-05-01 08:41 -6.13614 106.65007 38 ft 17 kts 159°
2026-05-01 08:41 -6.13725 106.65050 38 ft 16 kts 159°
2026-05-01 08:41 -6.13805 106.65006 37 ft 16 kts 248°
2026-05-01 08:42 -6.13849 106.64893 37 ft 19 kts 248°
2026-05-01 08:42 -6.13902 106.64761 37 ft 22 kts 248°
2026-05-01 08:42 -6.13960 106.64611 37 ft 24 kts 248°
2026-05-01 08:42 -6.14019 106.64466 37 ft 21 kts 248°
2026-05-01 08:43 -6.14065 106.64352 36 ft 14 kts 248°
2026-05-01 08:43 -6.14099 106.64307 39 ft 0 kts 219°
2026-05-01 08:44 -6.14104 106.64304 39 ft 3 kts 216°
2026-05-01 08:44 -6.14153 106.64301 40 ft 12 kts 158°
2026-05-01 08:44 -6.14222 106.64377 41 ft 17 kts 129°
2026-05-01 08:44 -6.14223 106.64441 40 ft 0 kts 67°
2026-05-01 08:45 -6.14223 106.64442 40 ft 2 kts 67°
2026-05-01 08:45 -6.14124 106.64686 38 ft 74 kts 68°
2026-05-01 08:45 -6.13857 106.65358 40 ft 130 kts 68°
2026-05-01 08:46 -6.13478 106.66338 155 ft 164 kts 67°
2026-05-01 08:46 -6.13057 106.67448 546 ft 178 kts 67°
2026-05-01 08:46 -6.12589 106.68665 912 ft 194 kts 67°
2026-05-01 08:46 -6.12098 106.69962 1399 ft 203 kts 68°
2026-05-01 08:47 -6.11587 106.71313 1900 ft 214 kts 68°
2026-05-01 08:47 -6.11078 106.72797 2261 ft 235 kts 77°
2026-05-01 08:47 -6.10988 106.74478 2849 ft 249 kts 101°
2026-05-01 08:47 -6.11711 106.76066 3583 ft 259 kts 132°
2026-05-01 08:48 -6.13244 106.77044 4371 ft 269 kts 165°
2026-05-01 08:48 -6.15162 106.77143 4999 ft 289 kts 189°
2026-05-01 08:48 -6.17057 106.76495 5883 ft 291 kts 207°
2026-05-01 08:48 -6.18647 106.75311 7249 ft 277 kts 221°
2026-05-01 08:49 -6.19827 106.73847 8533 ft 266 kts 244°
2026-05-01 08:49 -6.20326 106.72078 9595 ft 265 kts 262°
2026-05-01 08:49 -6.20480 106.70212 10363 ft 270 kts 267°
2026-05-01 08:49 -6.20643 106.68320 11139 ft 275 kts 261°
2026-05-01 08:50 -6.20947 106.66351 11557 ft 295 kts 259°
2026-05-01 08:50 -6.21322 106.64294 12242 ft 302 kts 258°
2026-05-01 08:50 -6.21733 106.62215 13063 ft 305 kts 259°
2026-05-01 08:50 -6.21793 106.60017 13399 ft 327 kts 280°
2026-05-01 08:51 -6.20961 106.57810 13618 ft 349 kts 303°
2026-05-01 08:51 -6.19331 106.55966 13830 ft 368 kts 321°
2026-05-01 08:51 -6.17247 106.54407 14397 ft 373 kts 326°
2026-05-01 08:51 -6.15120 106.52891 15067 ft 377 kts 324°
2026-05-01 08:52 -6.13013 106.51303 15726 ft 380 kts 323°
2026-05-01 08:52 -6.10931 106.49641 16382 ft 384 kts 322°
2026-05-01 08:52 -6.08863 106.47930 17005 ft 388 kts 321°
2026-05-01 08:52 -6.06782 106.46179 17638 ft 391 kts 321°
2026-05-01 08:53 -6.04691 106.44410 18221 ft 395 kts 321°
2026-05-01 08:53 -6.02583 106.42624 18763 ft 397 kts 321°
2026-05-01 08:53 -6.00461 106.40829 19303 ft 400 kts 321°
2026-05-01 08:53 -5.98342 106.39039 19824 ft 403 kts 321°
2026-05-01 08:54 -5.96189 106.37221 20348 ft 406 kts 321°
2026-05-01 08:54 -5.94016 106.35387 20864 ft 409 kts 321°
2026-05-01 08:54 -5.91826 106.33538 21377 ft 412 kts 321°
2026-05-01 08:54 -5.89625 106.31681 21874 ft 415 kts 321°
2026-05-01 08:55 -5.87400 106.29804 22379 ft 418 kts 321°
2026-05-01 08:55 -5.85166 106.27920 22870 ft 421 kts 321°
2026-05-01 08:55 -5.82913 106.26020 23349 ft 424 kts 321°
2026-05-01 08:55 -5.80645 106.24107 23764 ft 427 kts 321°
2026-05-01 08:56 -5.78392 106.22208 24163 ft 429 kts 321°
2026-05-01 08:56 -5.76069 106.20249 24566 ft 432 kts 321°
2026-05-01 08:56 -5.73760 106.18302 24949 ft 435 kts 321°
2026-05-01 08:56 -5.71469 106.16372 25333 ft 437 kts 321°
2026-05-01 08:57 -5.69132 106.14402 25704 ft 440 kts 321°
2026-05-01 08:57 -5.66785 106.12424 26067 ft 442 kts 321°
2026-05-01 08:57 -5.64420 106.10432 26434 ft 445 kts 321°
2026-05-01 08:57 -5.62046 106.08432 26791 ft 447 kts 321°
2026-05-01 08:58 -5.59651 106.06415 27132 ft 450 kts 321°
2026-05-01 08:58 -5.57249 106.04392 27472 ft 452 kts 321°
2026-05-01 08:58 -5.54826 106.02351 27804 ft 454 kts 321°
2026-05-01 08:58 -5.52399 106.00308 28136 ft 457 kts 321°
2026-05-01 08:59 -5.49958 105.98253 28457 ft 459 kts 321°
2026-05-01 08:59 -5.47504 105.96187 28769 ft 461 kts 321°
2026-05-01 08:59 -5.45032 105.94107 29079 ft 463 kts 321°
2026-05-01 08:59 -5.42589 105.92051 29364 ft 466 kts 321°
2026-05-01 09:00 -5.40065 105.89927 29680 ft 468 kts 321°
2026-05-01 09:00 -5.37601 105.87854 29963 ft 470 kts 321°
2026-05-01 09:00 -5.35087 105.85739 30224 ft 472 kts 321°
2026-05-01 09:00 -5.32570 105.83622 30523 ft 473 kts 321°
2026-05-01 09:01 -5.30043 105.81496 30807 ft 475 kts 321°
2026-05-01 09:01 -5.27509 105.79364 31140 ft 475 kts 321°
2026-05-01 09:01 -5.24976 105.77234 31532 ft 474 kts 321°
2026-05-01 09:01 -5.22450 105.75110 31928 ft 473 kts 321°
2026-05-01 09:02 -5.19932 105.72994 32327 ft 471 kts 321°
2026-05-01 09:02 -5.17422 105.70883 32622 ft 471 kts 321°
2026-05-01 09:02 -5.12425 105.66684 32803 ft 468 kts 321°
2026-05-01 09:03 -5.07461 105.62512 32819 ft 468 kts 321°
2026-05-01 09:03 -5.02477 105.58325 32821 ft 467 kts 321°
2026-05-01 09:04 -4.97459 105.54110 32820 ft 467 kts 321°
2026-05-01 09:04 -4.92508 105.49952 32817 ft 467 kts 321°
2026-05-01 09:05 -4.87520 105.45764 32818 ft 467 kts 321°
2026-05-01 09:05 -4.82537 105.41582 32817 ft 467 kts 321°
2026-05-01 09:06 -4.77552 105.37398 32819 ft 467 kts 321°
2026-05-01 09:06 -4.72596 105.33240 33047 ft 469 kts 321°
2026-05-01 09:07 -4.70102 105.31147 33432 ft 467 kts 321°
2026-05-01 09:07 -4.67615 105.29060 33805 ft 465 kts 321°
2026-05-01 09:07 -4.65133 105.26978 34111 ft 464 kts 321°
2026-05-01 09:07 -4.62660 105.24904 34413 ft 463 kts 321°
2026-05-01 09:08 -4.60184 105.22827 34696 ft 462 kts 321°
2026-05-01 09:08 -4.57724 105.20764 34987 ft 461 kts 321°
2026-05-01 09:08 -4.55259 105.18697 35277 ft 460 kts 321°
2026-05-01 09:08 -4.52830 105.16661 35553 ft 460 kts 321°
2026-05-01 09:09 -4.50384 105.14610 35839 ft 459 kts 321°
2026-05-01 09:09 -4.47933 105.12556 36135 ft 458 kts 321°
2026-05-01 09:09 -4.45493 105.10510 36418 ft 457 kts 321°
2026-05-01 09:09 -4.43055 105.08466 36696 ft 456 kts 321°
2026-05-01 09:10 -4.40620 105.06426 36963 ft 456 kts 321°
2026-05-01 09:10 -4.38184 105.04385 37216 ft 456 kts 321°
2026-05-01 09:10 -4.35753 105.02348 37472 ft 455 kts 321°
2026-05-01 09:10 -4.33327 105.00315 37716 ft 455 kts 321°
2026-05-01 09:11 -4.28471 104.96247 37816 ft 454 kts 321°
2026-05-01 09:11 -4.23630 104.92191 37807 ft 454 kts 321°
2026-05-01 09:12 -4.18814 104.88159 37808 ft 455 kts 321°
2026-05-01 09:12 -4.13953 104.84089 37810 ft 455 kts 321°
2026-05-01 09:13 -4.09088 104.80016 37815 ft 456 kts 321°
2026-05-01 09:13 -4.05040 104.76628 37816 ft 456 kts 321°
2026-05-01 09:14 -4.00169 104.72551 37820 ft 457 kts 321°
2026-05-01 09:14 -3.94467 104.67780 37822 ft 457 kts 321°
2026-05-01 09:15 -3.90412 104.64387 37825 ft 457 kts 321°
2026-05-01 09:15 -3.85531 104.60304 37819 ft 457 kts 321°
2026-05-01 09:16 -3.80648 104.56220 37818 ft 457 kts 321°
2026-05-01 09:17 -3.73322 104.50094 37814 ft 457 kts 321°
2026-05-01 09:17 -3.66036 104.44002 37813 ft 457 kts 321°
2026-05-01 09:18 -3.58713 104.37881 37807 ft 457 kts 321°
2026-05-01 09:19 -3.51394 104.31765 37808 ft 457 kts 321°
2026-05-01 09:20 -3.44076 104.25650 37797 ft 456 kts 321°
2026-05-01 09:21 -3.34328 104.17508 37805 ft 456 kts 321°
2026-05-01 09:21 -3.27008 104.11395 37804 ft 456 kts 321°
2026-05-01 09:22 -3.17284 104.03276 37800 ft 456 kts 321°
2026-05-01 09:23 -3.09962 103.97164 37802 ft 456 kts 321°
2026-05-01 09:24 -3.02662 103.91072 37808 ft 456 kts 321°
2026-05-01 09:25 -2.92913 103.82937 37810 ft 456 kts 321°
2026-05-01 09:26 -2.85587 103.76825 37809 ft 456 kts 321°
2026-05-01 09:26 -2.78305 103.70752 37812 ft 456 kts 321°
2026-05-01 09:27 -2.70990 103.64651 37806 ft 456 kts 321°
2026-05-01 09:28 -2.66103 103.60577 37804 ft 456 kts 322°
2026-05-01 09:28 -2.61227 103.56511 37811 ft 456 kts 322°
2026-05-01 09:29 -2.53905 103.50407 37810 ft 457 kts 322°
2026-05-01 09:30 -2.46604 103.44321 37810 ft 457 kts 322°
2026-05-01 09:30 -2.39266 103.38206 37812 ft 458 kts 322°
2026-05-01 09:31 -2.34370 103.34126 37811 ft 458 kts 322°
2026-05-01 09:32 -2.27049 103.28026 37815 ft 459 kts 322°
2026-05-01 09:32 -2.19678 103.21886 37821 ft 459 kts 322°
2026-05-01 09:33 -2.14769 103.17797 37822 ft 460 kts 322°
2026-05-01 09:34 -2.07381 103.11644 37828 ft 461 kts 322°
2026-05-01 09:34 -1.99990 103.05488 37823 ft 461 kts 322°
2026-05-01 09:35 -1.92583 102.99321 37830 ft 462 kts 322°
2026-05-01 09:36 -1.87679 102.95237 37834 ft 462 kts 322°
2026-05-01 09:36 -1.82735 102.91121 37791 ft 462 kts 322°
2026-05-01 09:36 -1.80266 102.89066 37559 ft 462 kts 322°
2026-05-01 09:37 -1.77792 102.87006 37304 ft 462 kts 322°
2026-05-01 09:37 -1.72853 102.82895 36803 ft 463 kts 322°
2026-05-01 09:37 -1.70370 102.80828 36556 ft 464 kts 322°
2026-05-01 09:38 -1.65406 102.76696 36067 ft 464 kts 322°
2026-05-01 09:38 -1.62921 102.74627 35830 ft 465 kts 322°
2026-05-01 09:38 -1.60431 102.72555 35592 ft 466 kts 322°
2026-05-01 09:39 -1.54997 102.69099 35122 ft 463 kts 337°
2026-05-01 09:39 -1.51992 102.67941 34896 ft 462 kts 345°
2026-05-01 09:39 -1.48906 102.67043 34671 ft 462 kts 345°
2026-05-01 09:40 -1.45813 102.66137 34442 ft 463 kts 345°
2026-05-01 09:40 -1.39634 102.64312 33999 ft 464 kts 345°
2026-05-01 09:40 -1.36537 102.63398 33772 ft 464 kts 345°
2026-05-01 09:41 -1.33474 102.62494 33518 ft 465 kts 345°
2026-05-01 09:41 -1.27252 102.60660 33022 ft 467 kts 345°
2026-05-01 09:41 -1.24135 102.59742 32771 ft 468 kts 345°
2026-05-01 09:42 -1.21013 102.58822 32526 ft 468 kts 345°
2026-05-01 09:42 -1.17879 102.57898 32282 ft 469 kts 345°
2026-05-01 09:42 -1.11631 102.56057 31784 ft 467 kts 345°
2026-05-01 09:43 -1.05336 102.54203 31315 ft 473 kts 345°
2026-05-01 09:43 -1.02184 102.53274 31079 ft 473 kts 345°
2026-05-01 09:43 -0.99023 102.52343 30698 ft 474 kts 345°
2026-05-01 09:44 -0.92660 102.50469 29068 ft 478 kts 345°
2026-05-01 09:44 -0.89495 102.49535 28565 ft 469 kts 345°
2026-05-01 09:44 -0.86383 102.48617 27967 ft 463 kts 345°
2026-05-01 09:45 -0.83308 102.47711 27351 ft 457 kts 345°
2026-05-01 09:45 -0.77268 102.45931 26168 ft 448 kts 345°
2026-05-01 09:45 -0.74284 102.45052 25555 ft 444 kts 345°
2026-05-01 09:46 -0.71367 102.44192 24955 ft 441 kts 345°
2026-05-01 09:46 -0.68438 102.43330 24363 ft 438 kts 345°
2026-05-01 09:46 -0.65525 102.42471 23767 ft 436 kts 346°
2026-05-01 09:46 -0.62623 102.41617 23132 ft 433 kts 346°
2026-05-01 09:47 -0.59751 102.40770 22574 ft 427 kts 345°
2026-05-01 09:47 -0.57003 102.39675 22001 ft 425 kts 335°
2026-05-01 09:47 -0.54511 102.38116 21491 ft 421 kts 324°
2026-05-01 09:47 -0.52341 102.36184 21042 ft 416 kts 317°
2026-05-01 09:48 -0.50271 102.34162 20590 ft 415 kts 317°
2026-05-01 09:48 -0.48206 102.32156 20129 ft 414 kts 317°
2026-05-01 09:48 -0.46145 102.30156 19679 ft 410 kts 317°
2026-05-01 09:48 -0.44107 102.28180 19208 ft 406 kts 317°
2026-05-01 09:49 -0.42089 102.26223 18779 ft 403 kts 318°
2026-05-01 09:49 -0.40078 102.24273 18327 ft 402 kts 317°
2026-05-01 09:49 -0.38080 102.22334 17827 ft 399 kts 317°
2026-05-01 09:49 -0.36107 102.20419 17431 ft 394 kts 317°
2026-05-01 09:50 -0.34139 102.18510 17005 ft 393 kts 317°
2026-05-01 09:50 -0.32182 102.16612 16577 ft 390 kts 317°
2026-05-01 09:50 -0.30268 102.14755 16147 ft 387 kts 317°
2026-05-01 09:50 -0.28340 102.12884 15729 ft 385 kts 317°
2026-05-01 09:51 -0.26425 102.11029 15324 ft 382 kts 317°
2026-05-01 09:51 -0.24520 102.09186 14924 ft 379 kts 317°
2026-05-01 09:51 -0.22623 102.07352 14523 ft 377 kts 317°
2026-05-01 09:51 -0.20747 102.05537 14128 ft 375 kts 317°
2026-05-01 09:52 -0.18877 102.03728 13736 ft 372 kts 317°
2026-05-01 09:52 -0.17023 102.01935 13321 ft 369 kts 317°
2026-05-01 09:52 -0.15179 102.00151 12924 ft 368 kts 317°
2026-05-01 09:52 -0.13347 101.98380 12564 ft 365 kts 317°
2026-05-01 09:53 -0.11532 101.96623 12346 ft 362 kts 317°
2026-05-01 09:53 -0.09720 101.94870 12006 ft 363 kts 317°
2026-05-01 09:53 -0.07934 101.93142 11635 ft 359 kts 316°
2026-05-01 09:53 -0.06151 101.91414 11257 ft 357 kts 316°
2026-05-01 09:54 -0.04374 101.89692 10876 ft 355 kts 316°
2026-05-01 09:54 -0.02610 101.87982 10504 ft 352 kts 316°
2026-05-01 09:54 -0.00878 101.86303 10346 ft 341 kts 316°
2026-05-01 09:54 0.00789 101.84686 10200 ft 325 kts 316°
2026-05-01 09:55 0.02367 101.83156 9947 ft 309 kts 316°
2026-05-01 09:55 0.03899 101.81672 9404 ft 305 kts 316°
2026-05-01 09:55 0.05416 101.80202 8878 ft 302 kts 316°
2026-05-01 09:55 0.06910 101.78756 8470 ft 294 kts 316°
2026-05-01 09:56 0.08340 101.77296 8155 ft 295 kts 310°
2026-05-01 09:56 0.09470 101.75601 7854 ft 291 kts 297°
2026-05-01 09:56 0.10265 101.73770 7571 ft 292 kts 292°
2026-05-01 09:56 0.11049 101.71888 7264 ft 293 kts 293°
2026-05-01 09:57 0.11837 101.70025 6971 ft 289 kts 293°
2026-05-01 09:57 0.12615 101.68192 6672 ft 286 kts 293°
2026-05-01 09:57 0.13397 101.66352 6382 ft 287 kts 293°
2026-05-01 09:57 0.14170 101.64530 6089 ft 283 kts 293°
2026-05-01 09:58 0.14937 101.62722 5795 ft 282 kts 293°
2026-05-01 09:58 0.15706 101.60910 5502 ft 283 kts 293°
2026-05-01 09:58 0.16471 101.59106 5216 ft 281 kts 293°
2026-05-01 09:58 0.17230 101.57316 4925 ft 279 kts 293°
2026-05-01 09:59 0.17982 101.55541 4648 ft 277 kts 293°
2026-05-01 09:59 0.18714 101.53767 4365 ft 276 kts 289°
2026-05-01 09:59 0.19168 101.51910 4079 ft 276 kts 277°
2026-05-01 09:59 0.19290 101.50004 3796 ft 274 kts 272°
2026-05-01 10:00 0.19370 101.48106 3520 ft 272 kts 272°
2026-05-01 10:00 0.19460 101.46221 3245 ft 271 kts 274°
2026-05-01 10:00 0.19968 101.44444 3101 ft 268 kts 301°
2026-05-01 10:00 0.20735 101.43498 3040 ft 262 kts 320°
2026-05-01 10:01 0.22826 101.42618 2899 ft 239 kts 359°
2026-05-01 10:01 0.24398 101.42871 2764 ft 221 kts 15°
2026-05-01 10:01 0.25374 101.43140 2674 ft 210 kts 16°
2026-05-01 10:01 0.27081 101.43609 2554 ft 175 kts 15°
2026-05-01 10:02 0.28170 101.43883 2511 ft 147 kts 14°
2026-05-01 10:02 0.28811 101.44016 2492 ft 135 kts
2026-05-01 10:02 0.29761 101.44070 2501 ft 138 kts
2026-05-01 10:02 0.30716 101.44060 2513 ft 137 kts 359°
2026-05-01 10:03 0.31670 101.44050 2502 ft 137 kts
2026-05-01 10:03 0.32631 101.44067 2336 ft 138 kts
2026-05-01 10:03 0.33579 101.44094 2160 ft 136 kts
2026-05-01 10:03 0.34523 101.44120 1986 ft 136 kts
2026-05-01 10:04 0.35464 101.44147 1809 ft 135 kts
2026-05-01 10:04 0.36401 101.44174 1637 ft 135 kts
2026-05-01 10:04 0.37340 101.44201 1467 ft 134 kts
2026-05-01 10:04 0.38262 101.44228 1293 ft 134 kts
2026-05-01 10:05 0.39195 101.44254 1119 ft 134 kts
2026-05-01 10:05 0.40123 101.44281 961 ft 134 kts
2026-05-01 10:05 0.41047 101.44308 818 ft 131 kts
2026-05-01 10:05 0.41966 101.44334 673 ft 130 kts
2026-05-01 10:06 0.42876 101.44360 515 ft 131 kts
2026-05-01 10:06 0.43767 101.44388 352 ft 129 kts
2026-05-01 10:06 0.44675 101.44409 208 ft 131 kts
2026-05-01 10:06 0.45567 101.44444 126 ft 121 kts
2026-05-01 10:07 0.46227 101.44457 128 ft 66 kts
2026-05-01 10:07 0.46516 101.44465 129 ft 25 kts
2026-05-01 10:07 0.46632 101.44503 127 ft 13 kts 75°
2026-05-01 10:07 0.46629 101.44581 128 ft 9 kts 114°
2026-05-01 10:08 0.46546 101.44595 127 ft 7 kts 179°
2026-05-01 10:08 0.46489 101.44593 124 ft 10 kts 182°
2026-05-01 10:08 0.46448 101.44606 126 ft 5 kts 108°
2026-05-01 10:09 0.46442 101.44649 127 ft 7 kts 95°
2026-05-01 10:09 0.46441 101.44682 124 ft 1 kts 91°